Погода в Светиловке

Россия / Амурская область     50°59′06″N   127°58′23″E
темп.,
°C
ветер,
м/с
пор.,
м/с
влажн.,
%
обл.,
%
осадки,
мм/ч
давл.,
гПа
погр.,
м
18 апреля, вс
вс1800:00+4ююз34565 0.0 101269
03:00+2ююз34650 0.0 101161
06:00+1ю35680 0.0 101177
09:00+8ю56490 0.0 1010442
12:00+13ю67360 0.0 10081123
15:00+15ю56310 0.0 10051523
18:00+14ю56340 0.0 10041306
21:00+9ююв49580 0.0 1005183
19 апреля, пн
пн1900:00+6ю367067 0.0 1004104
03:00+5ю36735 0.0 1003110
06:00+5сз813745 0.0 1004617
09:00+2сз10145498 0.0 1008850
12:00+5сз1013280 0.2 10091475
15:00+6сз1014200 0.2 10102122
18:00+4ссз1016220 0.0 10122233
21:000ссз1019300 0.0 10141886
20 апреля, вт
вт2000:00−1сз919310 0.0 10141595
03:00−3сз1018310 0.0 10131315
06:00−3сз918320 0.0 10141231
09:00+1сз915240 0.0 10151269
12:00+6сз913142 0.0 10151523
15:00+10сз711110 0.0 10141552
18:00+10сз47140 0.0 10141357
21:00+5юв11200 0.0 101510
21 апреля, ср
ср2100:00+3юв33251 0.0 101631
03:00+2юв33415 0.0 101542
06:00+1юв35563 0.0 101588
09:00+10ю45355 0.0 1015362
12:00+17ю57250 0.0 1014881
15:00+22ю79180 0.0 10121829
18:00+20ю710245 0.0 1013966
21:00+14ююв3940100 0.0 1015156
22 апреля, чт
чт2200:00+12ююв5134399 0.0 1016292
03:00+9ююв311515 0.0 1016227
06:00+10ююв617440 0.0 1017460
09:00+14ююв916335 0.0 1017688
12:00+20ю91224100 0.0 10171200
15:00+24ю91217100 0.0 10161407
18:00+20ю71324100 0.0 1017609
21:00+16ю4133895 0.0 1019238